Weather in Yablochnoye

Russia / Sakhalin District     47°09′23″N   142°03′29″E
temp.,
°C
wind,
m/s
gust,
m/s
humid.,
%
clouds,
%
prec.,
mm/h
press.,
hPa
HPBL,
m
17 april, sat
sat1723:00+3ese3480100 0.0 102247
02:00+5se41266100 0.0 1020350
05:00+3ese457694 0.0 101877
08:00+4se41074100 0.1 1017207
11:00+8sse51277100 0.5 1016788
14:00+6s41293100 1.8 1016697
17:00+5sse3696100 5.5 1016196
20:00+6sse4994100 0.8 1015310
18 april, sun
sun1823:00+5ese2295100 0.8 101521
02:00+6e2295100 0.1 101426
05:00+5e2396100 0.1 101261
08:00+5e3990100 0.6 1011398
11:00+6ene4990100 1.5 1009566
14:00+8ene5980100 0.4 1006491
17:00+4ne71587100 0.5 1002614
20:00+3ne81790100 0.6 1000899
19 april, mon
mon1923:00+3ne91894100 2.4 9961065
02:00+2ne10188695 1.8 993919
05:00+1nne111786100 2.1 991850
08:00+1nne81483100 0.5 990919
11:00+1n71294100 2.6 990815
14:00+2n6895100 1.6 989597
17:00+2nnw6998100 2.9 991379
20:00+1nnw10149499 0.8 993829
20 april, tue
tue2023:00+1n71484100 0.9 995758
02:00+1wnw2599100 0.1 996386
05:00+2ssw6995100 0.3 996612
08:00+4ssw81391100 1.3 994788
11:00+2w676358 1.5 9961149
14:00+2w9125298 0.0 9972015
17:00+2wsw9105264 0.0 9981867
20:00+1nw91593100 0.8 10001137
21 april, wed
wed2123:00+2nw51286100 1.1 10051008
02:00+2w2390100 0.1 100782
05:00+2nw4984100 0.1 1008235
08:00+3nnw4108411 0.0 1010826
11:00+5nw5107221 0.0 10121100
14:00+6wnw49645 0.0 1012996
17:00+4nnw697688 0.0 1014645
20:00+2nnw5138174 0.0 1015913